Precipitable_Water
0.33 0.19 0.20 0.23 0.22 0.16 0.19 0.25 0.23 0.28 0.28 0.29 0.28 0.25 0.28 0.29 0.33 0.45 0.52 0.61 0.63 0.53 0.52 0.60 0.62 0.63 0.65 0.70 0.72 0.77 0.80 0.81 0.78 0.76 0.75 0.75 0.75 0.75 0.75 0.75 0.76 0.77 0.77 0.79 0.81 0.83 0.83 0.84 0.85 0.86 0.86 0.86 0.88 0.88 0.88 0.89 0.89 0.92 0.93 0.97 1.00 1.02 1.07 1.09 1.09 1.11 1.12 1.14 1.15 1.16 1.16 1.13 1.13 1.12 1.12 1.14 1.17 1.21 1.22 1.22 1.22 1.24 1.27 1.29 1.28 1.29
0.30 0.19 0.18 0.25 0.27 0.19 0.19 0.27 0.32 0.33 0.34 0.33 0.32 0.28 0.26 0.29 0.27 0.39 0.46 0.61 0.64 0.49 0.46 0.56 0.58 0.60 0.64 0.68 0.70 0.72 0.73 0.74 0.74 0.73 0.73 0.72 0.71 0.72 0.72 0.72 0.73 0.74 0.76 0.78 0.79 0.81 0.82 0.83 0.83 0.83 0.84 0.85 0.86 0.86 0.88 0.88 0.88 0.89 0.90 0.90 0.91 0.94 0.98 1.02 1.04 1.03 1.04 1.05 1.05 1.04 1.05 1.05 1.06 1.05 1.05 1.04 1.04 1.05 1.08 1.12 1.14 1.13 1.12 1.15 1.17 1.18
0.21 0.15 0.16 0.28 0.35 0.29 0.26 0.30 0.34 0.32 0.32 0.33 0.30 0.29 0.25 0.26 0.32 0.41 0.46 0.62 0.59 0.54 0.46 0.51 0.52 0.56 0.61 0.65 0.69 0.70 0.69 0.70 0.71 0.71 0.71 0.70 0.70 0.70 0.70 0.70 0.71 0.71 0.73 0.75 0.76 0.77 0.79 0.80 0.81 0.82 0.83 0.84 0.84 0.84 0.86 0.86 0.88 0.90 0.90 0.91 0.91 0.92 0.93 0.95 0.98 1.00 1.00 0.99 0.99 0.98 0.98 0.98 0.98 1.00 0.99 0.99 1.00 1.02 1.03 1.04 1.07 1.08 1.08 1.10 1.13 1.14
0.17 0.17 0.21 0.36 0.37 0.29 0.25 0.30 0.32 0.32 0.34 0.31 0.31 0.31 0.22 0.28 0.24 0.24 0.41 0.53 0.54 0.51 0.47 0.50 0.49 0.52 0.60 0.64 0.65 0.68 0.69 0.69 0.70 0.69 0.69 0.70 0.70 0.69 0.69 0.70 0.70 0.70 0.71 0.72 0.73 0.75 0.76 0.78 0.79 0.80 0.81 0.81 0.80 0.80 0.80 0.80 0.80 0.82 0.83 0.85 0.87 0.88 0.90 0.91 0.92 0.93 0.94 0.95 0.95 0.95 0.95 0.95 0.96 0.96 0.98 0.99 1.00 1.01 1.02 1.03 1.04 1.05 1.06 1.06 1.08 1.11
0.16 0.25 0.29 0.33 0.35 0.28 0.23 0.29 0.30 0.30 0.27 0.31 0.32 0.32 0.30 0.28 0.26 0.26 0.31 0.44 0.48 0.49 0.52 0.48 0.44 0.48 0.53 0.53 0.57 0.61 0.65 0.66 0.67 0.66 0.66 0.68 0.68 0.68 0.68 0.69 0.70 0.70 0.71 0.71 0.71 0.72 0.73 0.74 0.75 0.76 0.76 0.76 0.77 0.77 0.77 0.77 0.78 0.78 0.78 0.80 0.81 0.82 0.83 0.84 0.86 0.87 0.89 0.90 0.91 0.90 0.91 0.94 0.94 0.93 0.94 0.95 0.95 0.93 0.92 0.93 0.96 0.98 0.98 0.98 0.97 0.99
0.20 0.28 0.36 0.32 0.32 0.29 0.26 0.26 0.30 0.31 0.27 0.27 0.32 0.32 0.34 0.36 0.32 0.34 0.34 0.35 0.37 0.37 0.43 0.42 0.30 0.34 0.45 0.51 0.54 0.59 0.61 0.62 0.64 0.62 0.61 0.62 0.63 0.63 0.64 0.66 0.68 0.69 0.70 0.70 0.69 0.70 0.70 0.70 0.70 0.71 0.71 0.72 0.72 0.73 0.73 0.74 0.74 0.74 0.74 0.74 0.75 0.76 0.77 0.78 0.80 0.83 0.83 0.83 0.84 0.87 0.87 0.86 0.83 0.83 0.85 0.85 0.85 0.87 0.86 0.85 0.86 0.88 0.89 0.88 0.88 0.89
0.20 0.30 0.34 0.31 0.30 0.27 0.26 0.25 0.30 0.34 0.28 0.24 0.24 0.35 0.39 0.39 0.42 0.33 0.29 0.32 0.26 0.25 0.40 0.52 0.30 0.25 0.40 0.43 0.49 0.52 0.56 0.58 0.61 0.61 0.59 0.58 0.59 0.60 0.62 0.63 0.64 0.66 0.67 0.67 0.67 0.67 0.67 0.67 0.67 0.67 0.68 0.68 0.68 0.68 0.68 0.68 0.68 0.68 0.68 0.68 0.68 0.68 0.68 0.70 0.70 0.72 0.73 0.74 0.75 0.75 0.76 0.76 0.75 0.75 0.76 0.78 0.79 0.78 0.78 0.78 0.77 0.78 0.79 0.80 0.81 0.81
0.25 0.29 0.33 0.34 0.31 0.26 0.24 0.24 0.32 0.34 0.30 0.23 0.33 0.34 0.37 0.39 0.46 0.38 0.32 0.29 0.27 0.36 0.43 0.49 0.42 0.28 0.26 0.37 0.46 0.50 0.50 0.52 0.55 0.56 0.58 0.58 0.59 0.60 0.61 0.62 0.62 0.63 0.63 0.63 0.64 0.64 0.64 0.64 0.64 0.64 0.65 0.66 0.65 0.65 0.65 0.64 0.64 0.64 0.64 0.64 0.65 0.65 0.65 0.65 0.65 0.65 0.66 0.65 0.64 0.64 0.64 0.66 0.66 0.66 0.66 0.68 0.69 0.69 0.69 0.68 0.69 0.70 0.71 0.72 0.73 0.72
0.26 0.30 0.32 0.30 0.29 0.24 0.22 0.26 0.35 0.40 0.32 0.29 0.40 0.39 0.33 0.35 0.40 0.48 0.40 0.33 0.31 0.27 0.25 0.38 0.47 0.36 0.33 0.39 0.48 0.49 0.46 0.48 0.51 0.54 0.57 0.59 0.60 0.60 0.60 0.61 0.62 0.62 0.62 0.62 0.62 0.62 0.63 0.64 0.65 0.65 0.65 0.65 0.65 0.65 0.64 0.64 0.64 0.65 0.65 0.64 0.64 0.64 0.64 0.64 0.64 0.64 0.64 0.65 0.64 0.64 0.64 0.63 0.63 0.63 0.62 0.63 0.63 0.62 0.62 0.61 0.61 0.62 0.62 0.63 0.64 0.65
0.35 0.36 0.33 0.33 0.26 0.21 0.26 0.33 0.40 0.40 0.31 0.42 0.50 0.49 0.42 0.40 0.41 0.41 0.40 0.38 0.33 0.27 0.20 0.26 0.38 0.33 0.33 0.42 0.45 0.49 0.48 0.48 0.51 0.55 0.57 0.59 0.60 0.60 0.60 0.60 0.61 0.62 0.62 0.63 0.63 0.64 0.65 0.66 0.66 0.66 0.65 0.64 0.64 0.63 0.62 0.62 0.61 0.60 0.60 0.60 0.59 0.58 0.59 0.59 0.59 0.59 0.59 0.59 0.59 0.58 0.58 0.57 0.57 0.58 0.58 0.59 0.59 0.58 0.57 0.57 0.57 0.58 0.59 0.59 0.60 0.60
0.39 0.46 0.48 0.36 0.25 0.26 0.31 0.37 0.41 0.40 0.41 0.52 0.50 0.45 0.41 0.39 0.37 0.38 0.37 0.38 0.33 0.22 0.26 0.31 0.32 0.31 0.27 0.37 0.40 0.41 0.45 0.51 0.53 0.56 0.58 0.59 0.60 0.60 0.60 0.60 0.61 0.61 0.62 0.62 0.63 0.64 0.64 0.64 0.63 0.61 0.60 0.59 0.58 0.57 0.56 0.55 0.55 0.55 0.55 0.55 0.55 0.55 0.55 0.55 0.55 0.55 0.54 0.55 0.55 0.55 0.55 0.55 0.54 0.53 0.53 0.53 0.53 0.53 0.53 0.53 0.53 0.53 0.54 0.55 0.55 0.55
0.37 0.42 0.38 0.37 0.38 0.34 0.36 0.34 0.44 0.45 0.46 0.46 0.40 0.40 0.38 0.40 0.38 0.33 0.32 0.35 0.22 0.20 0.29 0.34 0.31 0.31 0.23 0.32 0.43 0.50 0.52 0.53 0.54 0.54 0.55 0.56 0.58 0.60 0.60 0.61 0.62 0.62 0.63 0.63 0.62 0.60 0.59 0.58 0.57 0.56 0.55 0.54 0.53 0.53 0.51 0.51 0.50 0.50 0.49 0.49 0.49 0.49 0.49 0.49 0.49 0.50 0.50 0.50 0.50 0.50 0.50 0.51 0.50 0.50 0.50 0.50 0.50 0.50 0.49 0.49 0.48 0.49 0.49 0.49 0.49 0.50
0.32 0.34 0.37 0.35 0.39 0.36 0.33 0.36 0.37 0.41 0.44 0.41 0.40 0.37 0.28 0.31 0.34 0.25 0.27 0.21 0.22 0.19 0.28 0.34 0.35 0.28 0.27 0.36 0.45 0.50 0.52 0.54 0.56 0.56 0.55 0.56 0.58 0.60 0.62 0.63 0.64 0.64 0.62 0.61 0.59 0.58 0.57 0.56 0.55 0.54 0.53 0.52 0.51 0.50 0.49 0.47 0.46 0.46 0.45 0.45 0.45 0.45 0.45 0.45 0.45 0.46 0.46 0.46 0.47 0.47 0.47 0.47 0.48 0.47 0.46 0.46 0.46 0.47 0.46 0.46 0.46 0.46 0.46 0.47 0.47 0.48
0.28 0.36 0.34 0.31 0.34 0.40 0.39 0.32 0.31 0.29 0.36 0.37 0.34 0.30 0.24 0.25 0.26 0.22 0.23 0.26 0.25 0.28 0.34 0.33 0.36 0.28 0.32 0.35 0.45 0.47 0.51 0.55 0.57 0.57 0.58 0.58 0.59 0.60 0.61 0.62 0.61 0.60 0.58 0.56 0.55 0.54 0.53 0.52 0.51 0.49 0.48 0.48 0.47 0.47 0.46 0.46 0.45 0.44 0.44 0.44 0.43 0.44 0.44 0.43 0.43 0.43 0.43 0.44 0.44 0.43 0.43 0.43 0.42 0.42 0.42 0.43 0.43 0.43 0.42 0.41 0.41 0.41 0.41 0.42 0.43 0.44
0.19 0.22 0.26 0.28 0.24 0.40 0.39 0.37 0.35 0.30 0.31 0.33 0.38 0.33 0.26 0.26 0.24 0.21 0.24 0.20 0.20 0.22 0.28 0.35 0.26 0.22 0.24 0.29 0.45 0.48 0.52 0.54 0.57 0.57 0.58 0.59 0.59 0.59 0.60 0.59 0.58 0.56 0.54 0.53 0.51 0.50 0.49 0.48 0.47 0.46 0.45 0.45 0.45 0.46 0.46 0.46 0.44 0.43 0.43 0.43 0.43 0.42 0.42 0.42 0.41 0.41 0.41 0.41 0.41 0.41 0.41 0.40 0.40 0.39 0.40 0.40 0.41 0.40 0.38 0.38 0.37 0.37 0.37 0.38 0.38 0.38
0.25 0.23 0.30 0.34 0.35 0.40 0.36 0.43 0.45 0.39 0.35 0.38 0.37 0.36 0.28 0.24 0.33 0.25 0.30 0.28 0.27 0.27 0.25 0.28 0.25 0.32 0.31 0.45 0.48 0.50 0.51 0.51 0.53 0.53 0.54 0.53 0.54 0.54 0.53 0.52 0.51 0.51 0.50 0.48 0.47 0.46 0.45 0.45 0.45 0.45 0.44 0.44 0.45 0.45 0.45 0.45 0.45 0.43 0.42 0.42 0.42 0.41 0.41 0.41 0.40 0.39 0.39 0.39 0.40 0.40 0.39 0.39 0.38 0.38 0.37 0.37 0.38 0.37 0.35 0.35 0.34 0.34 0.34 0.34 0.34 0.33
0.27 0.19 0.32 0.35 0.39 0.38 0.41 0.45 0.44 0.47 0.22 0.33 0.37 0.29 0.29 0.37 0.30 0.28 0.31 0.35 0.33 0.28 0.26 0.34 0.30 0.35 0.41 0.45 0.45 0.46 0.45 0.45 0.46 0.48 0.49 0.49 0.50 0.49 0.48 0.47 0.46 0.46 0.45 0.45 0.44 0.43 0.43 0.44 0.43 0.42 0.41 0.41 0.42 0.44 0.45 0.45 0.45 0.42 0.41 0.41 0.41 0.40 0.40 0.39 0.39 0.38 0.37 0.37 0.37 0.37 0.37 0.37 0.36 0.35 0.35 0.35 0.35 0.33 0.32 0.31 0.30 0.30 0.30 0.29 0.29 0.28
0.20 0.21 0.32 0.33 0.29 0.40 0.48 0.47 0.47 0.46 0.45 0.38 0.31 0.37 0.42 0.42 0.37 0.26 0.19 0.25 0.25 0.21 0.25 0.30 0.27 0.28 0.29 0.25 0.42 0.40 0.39 0.40 0.41 0.43 0.44 0.45 0.45 0.44 0.43 0.43 0.43 0.42 0.42 0.42 0.42 0.41 0.41 0.41 0.40 0.40 0.40 0.40 0.40 0.41 0.43 0.44 0.45 0.43 0.42 0.41 0.40 0.40 0.39 0.39 0.37 0.36 0.35 0.34 0.34 0.34 0.34 0.34 0.33 0.33 0.33 0.32 0.33 0.31 0.30 0.29 0.29 0.28 0.27 0.26 0.26 0.25
0.32 0.21 0.28 0.34 0.33 0.38 0.45 0.44 0.41 0.44 0.47 0.38 0.37 0.47 0.32 0.26 0.23 0.28 0.23 0.16 0.15 0.15 0.20 0.26 0.29 0.28 0.28 0.25 0.32 0.33 0.34 0.36 0.37 0.38 0.38 0.39 0.40 0.41 0.42 0.42 0.42 0.41 0.40 0.39 0.39 0.38 0.38 0.38 0.39 0.39 0.38 0.38 0.38 0.38 0.40 0.41 0.40 0.39 0.38 0.38 0.39 0.39 0.39 0.38 0.36 0.34 0.33 0.33 0.31 0.31 0.31 0.30 0.30 0.29 0.29 0.29 0.29 0.27 0.26 0.26 0.25 0.25 0.25 0.24 0.23 0.22
0.34 0.22 0.25 0.33 0.32 0.35 0.37 0.37 0.27 0.31 0.39 0.45 0.45 0.37 0.40 0.32 0.26 0.22 0.20 0.21 0.18 0.13 0.15 0.18 0.23 0.19 0.28 0.28 0.31 0.32 0.35 0.34 0.35 0.34 0.35 0.37 0.37 0.39 0.39 0.39 0.39 0.37 0.36 0.36 0.36 0.36 0.36 0.37 0.37 0.37 0.36 0.36 0.37 0.37 0.38 0.38 0.38 0.36 0.36 0.35 0.34 0.34 0.33 0.32 0.31 0.31 0.31 0.31 0.30 0.29 0.29 0.27 0.27 0.26 0.25 0.24 0.25 0.23 0.24 0.23 0.23 0.22 0.21 0.20 0.20 0.19
0.29 0.30 0.18 0.27 0.34 0.33 0.27 0.31 0.28 0.31 0.28 0.30 0.30 0.29 0.29 0.30 0.34 0.27 0.25 0.20 0.15 0.13 0.12 0.12 0.12 0.17 0.25 0.31 0.31 0.31 0.32 0.33 0.33 0.33 0.35 0.36 0.37 0.37 0.37 0.37 0.36 0.34 0.33 0.33 0.33 0.33 0.33 0.34 0.35 0.36 0.36 0.36 0.36 0.36 0.36 0.35 0.34 0.33 0.32 0.30 0.30 0.29 0.29 0.28 0.27 0.26 0.26 0.26 0.25 0.24 0.23 0.22 0.21 0.20 0.20 0.19 0.19 0.18 0.18 0.18 0.17 0.17 0.16 0.16 0.15 0.15
0.31 0.29 0.20 0.26 0.26 0.29 0.31 0.38 0.40 0.37 0.35 0.29 0.26 0.23 0.24 0.21 0.19 0.15 0.15 0.23 0.19 0.15 0.12 0.10 0.08 0.16 0.23 0.30 0.31 0.31 0.33 0.33 0.34 0.35 0.35 0.36 0.36 0.36 0.36 0.35 0.33 0.32 0.31 0.31 0.31 0.31 0.32 0.33 0.34 0.35 0.34 0.32 0.31 0.31 0.31 0.32 0.30 0.29 0.28 0.28 0.27 0.26 0.25 0.24 0.23 0.23 0.22 0.21 0.20 0.18 0.17 0.16 0.16 0.15 0.15 0.14 0.15 0.14 0.15 0.15 0.15 0.15 0.15 0.15 0.15 0.15
0.40 0.35 0.29 0.25 0.31 0.31 0.35 0.39 0.45 0.43 0.40 0.36 0.32 0.27 0.29 0.24 0.21 0.15 0.10 0.14 0.18 0.17 0.19 0.15 0.11 0.14 0.25 0.29 0.31 0.33 0.34 0.34 0.34 0.34 0.33 0.33 0.34 0.34 0.34 0.33 0.32 0.31 0.30 0.30 0.31 0.31 0.32 0.31 0.31 0.31 0.30 0.29 0.28 0.29 0.30 0.30 0.29 0.27 0.26 0.25 0.24 0.23 0.21 0.20 0.17 0.16 0.16 0.15 0.14 0.15 0.15 0.15 0.15 0.15 0.15 0.15 0.15 0.14 0.14 0.14 0.14 0.14 0.13 0.13 0.14 0.14
0.40 0.31 0.27 0.27 0.31 0.34 0.36 0.39 0.41 0.41 0.39 0.33 0.31 0.31 0.28 0.23 0.24 0.19 0.16 0.18 0.14 0.16 0.13 0.14 0.10 0.13 0.23 0.29 0.31 0.33 0.34 0.34 0.34 0.33 0.32 0.32 0.32 0.32 0.31 0.31 0.30 0.30 0.29 0.29 0.30 0.30 0.30 0.30 0.31 0.30 0.29 0.27 0.26 0.26 0.27 0.27 0.26 0.24 0.23 0.21 0.20 0.18 0.17 0.15 0.14 0.14 0.15 0.15 0.15 0.16 0.16 0.15 0.15 0.14 0.14 0.13 0.13 0.13 0.13 0.13 0.12 0.13 0.12 0.12 0.13 0.12
0.27 0.28 0.25 0.18 0.19 0.20 0.22 0.25 0.26 0.30 0.30 0.27 0.25 0.27 0.27 0.27 0.24 0.23 0.20 0.19 0.13 0.14 0.13 0.11 0.08 0.13 0.23 0.28 0.30 0.31 0.30 0.30 0.30 0.30 0.30 0.29 0.30 0.30 0.30 0.30 0.30 0.30 0.29 0.29 0.29 0.29 0.29 0.29 0.28 0.27 0.26 0.25 0.24 0.24 0.24 0.23 0.23 0.21 0.20 0.19 0.17 0.16 0.15 0.14 0.15 0.15 0.15 0.15 0.14 0.14 0.14 0.13 0.13 0.12 0.12 0.12 0.12 0.12 0.12 0.12 0.12 0.12 0.12 0.12 0.12 0.12
0.29 0.26 0.23 0.15 0.11 0.10 0.10 0.11 0.13 0.16 0.19 0.23 0.24 0.23 0.24 0.22 0.21 0.18 0.14 0.15 0.12 0.16 0.15 0.12 0.11 0.17 0.21 0.23 0.25 0.26 0.27 0.27 0.28 0.28 0.29 0.29 0.29 0.29 0.29 0.29 0.29 0.29 0.29 0.28 0.28 0.27 0.26 0.26 0.26 0.25 0.25 0.24 0.22 0.22 0.22 0.21 0.20 0.18 0.17 0.16 0.16 0.15 0.14 0.14 0.13 0.13 0.13 0.13 0.13 0.13 0.12 0.12 0.12 0.12 0.12 0.12 0.12 0.12 0.12 0.12 0.12 0.11 0.12 0.12 0.12 0.12
0.23 0.25 0.23 0.21 0.18 0.16 0.18 0.21 0.25 0.26 0.24 0.20 0.22 0.23 0.23 0.24 0.24 0.21 0.19 0.15 0.13 0.17 0.15 0.15 0.15 0.14 0.14 0.16 0.17 0.20 0.22 0.23 0.24 0.25 0.26 0.27 0.29 0.29 0.29 0.28 0.28 0.27 0.26 0.25 0.24 0.24 0.24 0.24 0.23 0.23 0.22 0.21 0.20 0.19 0.19 0.17 0.16 0.15 0.14 0.14 0.14 0.14 0.12 0.12 0.12 0.12 0.12 0.12 0.13 0.13 0.13 0.13 0.12 0.12 0.12 0.12 0.12 0.12 0.12 0.11 0.11 0.11 0.11 0.11 0.11 0.11
0.17 0.14 0.16 0.17 0.18 0.19 0.22 0.22 0.25 0.26 0.21 0.22 0.21 0.21 0.22 0.21 0.21 0.18 0.14 0.12 0.17 0.13 0.09 0.15 0.16 0.12 0.13 0.16 0.18 0.19 0.21 0.23 0.25 0.25 0.26 0.27 0.27 0.27 0.26 0.26 0.25 0.24 0.24 0.23 0.23 0.22 0.21 0.21 0.21 0.20 0.20 0.19 0.17 0.16 0.15 0.15 0.14 0.13 0.13 0.12 0.12 0.12 0.12 0.12 0.12 0.12 0.12 0.12 0.12 0.13 0.12 0.12 0.12 0.12 0.11 0.11 0.11 0.11 0.11 0.11 0.10 0.10 0.10 0.11 0.10 0.10
0.16 0.12 0.16 0.16 0.15 0.17 0.18 0.18 0.20 0.19 0.18 0.17 0.17 0.17 0.16 0.17 0.16 0.12 0.12 0.14 0.14 0.08 0.07 0.13 0.14 0.13 0.15 0.17 0.20 0.21 0.22 0.22 0.23 0.24 0.25 0.26 0.26 0.25 0.24 0.23 0.22 0.22 0.22 0.22 0.21 0.21 0.21 0.20 0.20 0.19 0.18 0.16 0.14 0.13 0.13 0.13 0.13 0.13 0.13 0.12 0.12 0.12 0.12 0.12 0.12 0.12 0.12 0.12 0.12 0.12 0.12 0.12 0.12 0.12 0.11 0.11 0.11 0.11 0.10 0.10 0.10 0.10 0.10 0.10 0.10 0.10
0.18 0.15 0.16 0.16 0.14 0.15 0.15 0.15 0.16 0.15 0.15 0.15 0.14 0.14 0.15 0.14 0.14 0.14 0.14 0.15 0.14 0.13 0.14 0.15 0.15 0.14 0.18 0.19 0.20 0.21 0.22 0.22 0.22 0.24 0.24 0.23 0.22 0.23 0.22 0.22 0.21 0.21 0.21 0.21 0.21 0.21 0.20 0.19 0.18 0.16 0.15 0.13 0.12 0.12 0.12 0.12 0.12 0.12 0.12 0.12 0.12 0.12 0.12 0.12 0.12 0.12 0.11 0.11 0.12 0.12 0.12 0.12 0.12 0.12 0.11 0.11 0.11 0.11 0.10 0.10 0.10 0.10 0.10 0.09 0.09 0.09
0.13 0.12 0.17 0.15 0.13 0.12 0.14 0.15 0.14 0.14 0.13 0.13 0.13 0.14 0.14 0.15 0.15 0.15 0.15 0.15 0.16 0.14 0.15 0.14 0.13 0.13 0.18 0.21 0.20 0.21 0.21 0.21 0.21 0.20 0.20 0.21 0.22 0.22 0.21 0.21 0.20 0.20 0.20 0.20 0.20 0.19 0.18 0.16 0.15 0.14 0.13 0.12 0.12 0.12 0.12 0.12 0.12 0.12 0.12 0.12 0.12 0.12 0.12 0.12 0.12 0.12 0.12 0.12 0.12 0.13 0.13 0.12 0.12 0.11 0.10 0.10 0.10 0.10 0.09 0.09 0.09 0.09 0.09 0.09 0.09 0.09
0.13 0.11 0.14 0.11 0.07 0.07 0.10 0.10 0.09 0.10 0.09 0.08 0.09 0.10 0.11 0.11 0.10 0.11 0.11 0.13 0.11 0.10 0.12 0.11 0.09 0.08 0.15 0.19 0.19 0.19 0.19 0.18 0.17 0.18 0.19 0.20 0.21 0.21 0.20 0.20 0.19 0.19 0.18 0.18 0.18 0.17 0.16 0.15 0.14 0.14 0.13 0.12 0.12 0.12 0.12 0.11 0.12 0.12 0.11 0.12 0.12 0.12 0.13 0.12 0.12 0.12 0.12 0.12 0.12 0.13 0.12 0.12 0.11 0.11 0.10 0.10 0.10 0.10 0.09 0.09 0.09 0.09 0.09 0.09 0.09 0.09
0.09 0.08 0.06 0.06 0.04 0.04 0.06 0.06 0.06 0.06 0.05 0.04 0.05 0.06 0.08 0.10 0.10 0.11 0.12 0.13 0.13 0.13 0.10 0.07 0.06 0.10 0.13 0.16 0.15 0.16 0.16 0.17 0.17 0.18 0.18 0.19 0.20 0.20 0.19 0.19 0.18 0.18 0.17 0.17 0.16 0.16 0.15 0.15 0.14 0.14 0.13 0.12 0.12 0.12 0.12 0.12 0.11 0.11 0.12 0.12 0.13 0.13 0.13 0.12 0.12 0.12 0.12 0.12 0.12 0.12 0.12 0.11 0.11 0.10 0.10 0.10 0.10 0.10 0.10 0.09 0.09 0.09 0.09 0.09 0.09 0.09
0.09 0.08 0.06 0.07 0.04 0.04 0.05 0.04 0.05 0.04 0.03 0.03 0.10 0.10 0.07 0.06 0.08 0.06 0.06 0.08 0.11 0.12 0.10 0.11 0.11 0.13 0.13 0.14 0.13 0.14 0.14 0.15 0.15 0.17 0.19 0.19 0.18 0.18 0.19 0.18 0.17 0.17 0.17 0.17 0.16 0.16 0.16 0.15 0.14 0.14 0.13 0.12 0.12 0.12 0.12 0.12 0.12 0.12 0.13 0.13 0.13 0.13 0.13 0.12 0.12 0.12 0.12 0.12 0.12 0.12 0.11 0.11 0.11 0.10 0.10 0.10 0.10 0.10 0.09 0.09 0.09 0.09 0.09 0.09 0.09 0.09
0.09 0.08 0.07 0.08 0.06 0.05 0.06 0.07 0.05 0.04 0.04 0.10 0.12 0.13 0.11 0.10 0.10 0.08 0.08 0.09 0.09 0.12 0.12 0.11 0.11 0.12 0.13 0.13 0.13 0.14 0.14 0.16 0.17 0.17 0.18 0.19 0.19 0.18 0.18 0.18 0.17 0.17 0.16 0.16 0.16 0.16 0.15 0.15 0.14 0.14 0.13 0.13 0.12 0.13 0.13 0.12 0.13 0.13 0.13 0.13 0.13 0.13 0.13 0.13 0.12 0.12 0.12 0.12 0.12 0.12 0.11 0.11 0.11 0.10 0.10 0.10 0.10 0.10 0.09 0.09 0.09 0.09 0.09 0.09 0.09 0.08
0.08 0.08 0.08 0.08 0.08 0.08 0.07 0.06 0.04 0.04 0.08 0.11 0.13 0.14 0.14 0.13 0.12 0.10 0.08 0.09 0.10 0.10 0.11 0.10 0.11 0.12 0.13 0.13 0.14 0.15 0.15 0.15 0.16 0.16 0.17 0.19 0.19 0.18 0.18 0.17 0.17 0.17 0.16 0.16 0.16 0.16 0.15 0.14 0.14 0.13 0.13 0.13 0.13 0.13 0.13 0.12 0.13 0.13 0.13 0.14 0.13 0.13 0.13 0.13 0.13 0.12 0.12 0.12 0.11 0.11 0.11 0.11 0.10 0.10 0.10 0.10 0.10 0.09 0.09 0.09 0.09 0.09 0.09 0.09 0.09 0.09
0.10 0.09 0.08 0.06 0.09 0.05 0.06 0.06 0.05 0.07 0.07 0.08 0.09 0.10 0.11 0.09 0.09 0.08 0.06 0.07 0.09 0.10 0.11 0.10 0.11 0.12 0.13 0.13 0.14 0.14 0.15 0.15 0.14 0.14 0.16 0.17 0.18 0.19 0.18 0.18 0.18 0.17 0.17 0.17 0.17 0.16 0.16 0.15 0.14 0.14 0.14 0.13 0.13 0.12 0.12 0.13 0.13 0.13 0.13 0.13 0.13 0.13 0.13 0.13 0.13 0.12 0.12 0.12 0.11 0.11 0.11 0.11 0.10 0.10 0.10 0.10 0.10 0.09 0.09 0.09 0.09 0.09 0.09 0.08 0.08 0.08
0.14 0.09 0.10 0.07 0.07 0.07 0.05 0.05 0.05 0.04 0.04 0.06 0.09 0.12 0.14 0.14 0.13 0.12 0.09 0.07 0.09 0.10 0.11 0.11 0.11 0.12 0.12 0.13 0.14 0.14 0.15 0.13 0.11 0.12 0.15 0.16 0.18 0.18 0.19 0.19 0.18 0.18 0.18 0.17 0.17 0.16 0.16 0.15 0.15 0.15 0.14 0.13 0.13 0.13 0.13 0.13 0.13 0.13 0.13 0.13 0.14 0.14 0.13 0.13 0.13 0.13 0.12 0.12 0.11 0.11 0.11 0.11 0.11 0.11 0.11 0.10 0.10 0.09 0.09 0.09 0.09 0.09 0.09 0.08 0.08 0.08
0.13 0.13 0.11 0.08 0.07 0.07 0.06 0.04 0.04 0.03 0.04 0.07 0.08 0.10 0.13 0.13 0.12 0.12 0.08 0.05 0.08 0.10 0.11 0.11 0.11 0.12 0.12 0.12 0.13 0.14 0.13 0.10 0.09 0.11 0.15 0.16 0.17 0.18 0.18 0.18 0.18 0.18 0.17 0.17 0.16 0.15 0.15 0.15 0.15 0.14 0.13 0.13 0.12 0.13 0.14 0.14 0.14 0.14 0.13 0.14 0.14 0.14 0.14 0.14 0.14 0.13 0.13 0.12 0.12 0.12 0.11 0.11 0.11 0.11 0.11 0.10 0.10 0.10 0.09 0.09 0.09 0.09 0.09 0.09 0.08 0.08
0.10 0.10 0.09 0.08 0.07 0.07 0.06 0.05 0.04 0.05 0.05 0.07 0.10 0.11 0.13 0.14 0.12 0.10 0.04 0.05 0.09 0.11 0.12 0.12 0.11 0.12 0.13 0.13 0.13 0.13 0.11 0.09 0.10 0.11 0.15 0.16 0.16 0.17 0.17 0.17 0.17 0.17 0.16 0.16 0.16 0.16 0.16 0.16 0.15 0.14 0.13 0.13 0.13 0.14 0.14 0.14 0.14 0.14 0.14 0.14 0.14 0.14 0.14 0.14 0.14 0.14 0.14 0.13 0.12 0.12 0.12 0.12 0.11 0.11 0.11 0.10 0.10 0.09 0.09 0.09 0.09 0.08 0.08 0.08 0.08 0.08
0.08 0.09 0.10 0.07 0.08 0.08 0.07 0.06 0.07 0.07 0.09 0.11 0.11 0.13 0.14 0.14 0.11 0.06 0.04 0.06 0.10 0.11 0.12 0.12 0.12 0.13 0.13 0.13 0.13 0.11 0.12 0.13 0.13 0.14 0.15 0.15 0.15 0.16 0.16 0.17 0.17 0.16 0.16 0.16 0.16 0.17 0.16 0.16 0.14 0.13 0.13 0.13 0.14 0.15 0.15 0.15 0.14 0.14 0.15 0.15 0.15 0.14 0.15 0.15 0.15 0.14 0.14 0.13 0.12 0.12 0.12 0.12 0.11 0.11 0.11 0.10 0.10 0.09 0.09 0.09 0.08 0.08 0.08 0.08 0.08 0.08
0.09 0.09 0.10 0.10 0.08 0.07 0.08 0.07 0.06 0.07 0.10 0.12 0.14 0.14 0.15 0.10 0.06 0.06 0.08 0.12 0.12 0.12 0.13 0.13 0.13 0.13 0.13 0.13 0.13 0.12 0.13 0.14 0.14 0.15 0.14 0.14 0.14 0.15 0.15 0.15 0.16 0.16 0.16 0.17 0.17 0.17 0.16 0.15 0.14 0.14 0.14 0.14 0.15 0.15 0.15 0.15 0.15 0.15 0.15 0.15 0.15 0.15 0.16 0.16 0.15 0.15 0.14 0.13 0.12 0.12 0.12 0.12 0.11 0.11 0.10 0.10 0.09 0.09 0.08 0.08 0.08 0.08 0.08 0.08 0.07 0.07
0.08 0.08 0.07 0.08 0.09 0.10 0.09 0.07 0.07 0.05 0.13 0.14 0.15 0.14 0.15 0.08 0.08 0.11 0.12 0.13 0.14 0.13 0.13 0.14 0.14 0.14 0.14 0.13 0.14 0.14 0.14 0.14 0.14 0.14 0.15 0.15 0.14 0.14 0.14 0.15 0.15 0.15 0.15 0.16 0.16 0.17 0.16 0.14 0.14 0.14 0.14 0.15 0.15 0.16 0.16 0.16 0.15 0.15 0.16 0.15 0.16 0.17 0.17 0.16 0.16 0.15 0.14 0.13 0.12 0.12 0.12 0.12 0.11 0.11 0.10 0.09 0.09 0.08 0.08 0.08 0.08 0.08 0.07 0.07 0.07 0.06
0.12 0.09 0.08 0.09 0.10 0.07 0.08 0.06 0.06 0.08 0.11 0.15 0.13 0.09 0.12 0.12 0.13 0.13 0.13 0.12 0.14 0.14 0.14 0.14 0.14 0.15 0.15 0.14 0.14 0.14 0.14 0.14 0.15 0.15 0.15 0.15 0.15 0.15 0.15 0.15 0.15 0.16 0.16 0.17 0.17 0.16 0.15 0.15 0.15 0.14 0.15 0.15 0.16 0.16 0.17 0.16 0.16 0.16 0.16 0.16 0.17 0.17 0.17 0.16 0.16 0.15 0.14 0.13 0.12 0.12 0.12 0.12 0.11 0.10 0.10 0.09 0.08 0.08 0.08 0.07 0.07 0.07 0.07 0.07 0.06 0.06
0.13 0.10 0.11 0.09 0.12 0.09 0.08 0.09 0.11 0.12 0.13 0.15 0.14 0.13 0.14 0.15 0.15 0.15 0.14 0.14 0.13 0.14 0.16 0.14 0.14 0.15 0.15 0.15 0.14 0.14 0.14 0.15 0.14 0.15 0.15 0.15 0.15 0.15 0.15 0.15 0.15 0.16 0.16 0.16 0.16 0.16 0.16 0.15 0.15 0.15 0.15 0.16 0.17 0.17 0.17 0.18 0.17 0.17 0.16 0.17 0.18 0.17 0.17 0.16 0.15 0.14 0.13 0.13 0.12 0.12 0.12 0.11 0.10 0.10 0.09 0.08 0.08 0.07 0.07 0.07 0.07 0.06 0.06 0.06 0.06 0.06
0.15 0.15 0.15 0.13 0.11 0.13 0.14 0.13 0.14 0.14 0.14 0.15 0.16 0.16 0.15 0.16 0.16 0.16 0.15 0.14 0.15 0.15 0.16 0.15 0.15 0.16 0.16 0.16 0.15 0.15 0.15 0.15 0.15 0.15 0.16 0.16 0.16 0.16 0.16 0.16 0.16 0.17 0.17 0.16 0.16 0.16 0.16 0.16 0.16 0.16 0.16 0.17 0.18 0.18 0.18 0.18 0.18 0.17 0.17 0.18 0.18 0.18 0.17 0.16 0.15 0.14 0.13 0.13 0.12 0.12 0.11 0.10 0.09 0.09 0.08 0.08 0.07 0.07 0.07 0.07 0.06 0.06 0.06 0.06 0.06 0.06
0.15 0.16 0.14 0.12 0.13 0.12 0.09 0.14 0.13 0.13 0.14 0.15 0.15 0.16 0.17 0.17 0.17 0.17 0.16 0.16 0.16 0.17 0.17 0.17 0.17 0.17 0.17 0.17 0.16 0.15 0.15 0.16 0.15 0.16 0.16 0.16 0.16 0.16 0.16 0.16 0.16 0.17 0.17 0.16 0.17 0.17 0.17 0.17 0.17 0.17 0.17 0.17 0.18 0.19 0.19 0.19 0.19 0.19 0.19 0.19 0.18 0.18 0.17 0.16 0.14 0.13 0.13 0.12 0.12 0.11 0.11 0.09 0.08 0.08 0.07 0.07 0.07 0.07 0.07 0.07 0.06 0.06 0.06 0.06 0.06 0.06
0.13 0.17 0.14 0.14 0.14 0.12 0.11 0.13 0.14 0.14 0.15 0.15 0.16 0.15 0.15 0.16 0.17 0.18 0.18 0.18 0.18 0.18 0.18 0.18 0.18 0.18 0.18 0.17 0.17 0.17 0.16 0.17 0.16 0.16 0.17 0.17 0.17 0.17 0.17 0.17 0.17 0.17 0.17 0.18 0.18 0.18 0.18 0.18 0.17 0.17 0.18 0.18 0.19 0.19 0.20 0.20 0.19 0.19 0.19 0.19 0.19 0.18 0.17 0.15 0.14 0.13 0.12 0.12 0.11 0.11 0.10 0.09 0.08 0.07 0.07 0.07 0.07 0.06 0.06 0.06 0.06 0.06 0.06 0.06 0.06 0.06
0.17 0.18 0.14 0.15 0.14 0.15 0.15 0.15 0.15 0.16 0.15 0.15 0.16 0.16 0.17 0.17 0.17 0.18 0.18 0.18 0.19 0.18 0.18 0.19 0.19 0.18 0.18 0.18 0.18 0.18 0.17 0.18 0.18 0.18 0.17 0.18 0.18 0.18 0.18 0.18 0.18 0.18 0.18 0.18 0.18 0.19 0.18 0.18 0.18 0.18 0.19 0.19 0.20 0.20 0.20 0.20 0.20 0.20 0.20 0.19 0.19 0.18 0.16 0.14 0.14 0.13 0.12 0.12 0.11 0.10 0.09 0.08 0.08 0.07 0.07 0.06 0.06 0.06 0.07 0.06 0.06 0.06 0.06 0.07 0.07 0.07
0.18 0.15 0.17 0.16 0.15 0.14 0.14 0.14 0.15 0.13 0.13 0.15 0.16 0.16 0.17 0.17 0.18 0.18 0.19 0.19 0.19 0.19 0.19 0.19 0.19 0.20 0.20 0.19 0.19 0.19 0.18 0.18 0.19 0.19 0.18 0.18 0.18 0.18 0.19 0.19 0.19 0.19 0.19 0.19 0.19 0.19 0.19 0.19 0.19 0.19 0.19 0.20 0.20 0.20 0.20 0.20 0.20 0.20 0.20 0.19 0.18 0.17 0.15 0.14 0.13 0.12 0.12 0.11 0.10 0.09 0.08 0.08 0.07 0.07 0.07 0.06 0.06 0.06 0.06 0.07 0.07 0.07 0.07 0.07 0.08 0.08
0.19 0.18 0.18 0.16 0.15 0.15 0.17 0.18 0.19 0.18 0.17 0.18 0.18 0.19 0.19 0.19 0.19 0.18 0.18 0.18 0.19 0.20 0.20 0.20 0.19 0.20 0.20 0.20 0.21 0.20 0.19 0.19 0.19 0.20 0.19 0.19 0.19 0.19 0.20 0.20 0.20 0.20 0.20 0.20 0.20 0.20 0.19 0.19 0.20 0.20 0.20 0.20 0.21 0.21 0.21 0.21 0.21 0.20 0.20 0.19 0.18 0.17 0.15 0.14 0.13 0.12 0.11 0.10 0.09 0.08 0.08 0.07 0.07 0.07 0.06 0.06 0.06 0.06 0.06 0.06 0.06 0.07 0.07 0.08 0.08 0.08
Wind_Speed
30 31 33 34 35 38 39 39 37 34 33 35 37 37 35 35 34 31 28 30 33 30 27 28 24 19 17 16 17 18 19 20 22 24 23 23 22 20 18 16 16 15 15 15 14 13 13 13 13 13 13 13 13 13 14 14 14 15 15 16 16 17 17 17 18 18 19 19 19 20 20 20 20 20 20 20 20 20 20 21 21 21 21 22 22 23
29 32 34 34 34 35 36 36 34 33 33 33 34 35 35 34 33 32 28 27 30 29 28 29 25 20 17 16 16 17 17 17 19 22 22 22 22 22 21 19 18 17 17 16 15 14 13 13 14 14 14 13 13 13 13 14 14 14 15 16 17 17 18 18 19 19 20 20 21 21 21 21 21 21 22 22 22 22 22 22 22 22 23 23 23 24
29 33 34 32 31 32 34 34 34 33 32 32 33 34 35 34 32 30 28 27 28 27 28 29 26 22 19 17 16 15 15 16 16 18 19 20 20 20 21 21 20 19 18 16 15 15 15 14 15 15 15 14 14 14 14 14 14 15 15 16 17 18 18 19 19 20 21 21 22 22 22 22 22 22 22 22 22 23 23 24 24 24 24 25 25 25
28 30 32 31 30 32 34 34 35 33 32 32 32 33 34 35 33 31 29 28 27 27 28 27 26 24 22 20 19 16 16 16 15 16 16 16 17 17 18 18 19 19 18 17 16 16 15 16 16 15 16 16 15 15 15 16 16 16 16 17 17 17 18 19 19 20 20 21 21 22 22 22 23 23 23 23 23 24 25 25 25 26 26 27 27 27
27 27 29 32 32 33 34 34 35 33 31 32 33 32 32 34 34 32 31 29 26 27 28 27 24 23 22 21 20 19 18 18 17 17 16 16 16 16 16 15 15 16 16 17 17 16 15 15 16 16 16 16 16 16 16 17 17 17 17 18 18 18 18 18 18 19 20 20 21 22 23 24 24 25 25 25 25 25 25 26 26 27 27 28 28 28
27 26 27 31 33 33 34 34 35 33 31 31 32 33 32 32 32 32 33 31 27 28 29 27 24 22 22 22 20 19 18 18 18 18 17 16 16 16 16 16 16 15 15 15 15 15 15 15 15 15 15 16 16 16 17 17 17 17 17 18 18 18 18 18 19 19 20 20 21 22 23 24 25 26 26 27 27 27 27 27 27 28 28 28 29 29
26 27 27 30 32 34 34 33 34 33 30 29 31 32 31 30 31 34 35 32 28 28 28 27 25 24 24 23 23 21 19 18 18 18 17 17 17 17 16 17 17 16 16 15 14 14 14 15 15 15 15 15 16 16 17 17 17 17 18 18 18 18 19 19 19 20 20 21 21 22 22 23 24 25 26 27 27 28 28 28 28 29 29 29 30 30
25 27 28 30 32 34 34 33 34 33 30 28 29 31 32 31 31 33 33 30 29 27 25 23 23 23 24 25 25 24 22 19 18 18 18 18 17 16 16 16 15 15 15 14 14 13 13 14 14 14 15 15 15 15 16 17 17 17 18 18 18 18 19 19 20 20 21 21 22 22 22 23 24 25 26 27 27 28 28 29 29 29 30 31 31 32
23 26 27 30 32 33 34 33 33 33 29 26 25 27 29 31 31 31 29 28 28 26 24 23 22 20 20 23 24 24 23 22 21 19 19 18 17 16 16 15 15 14 14 13 13 13 13 14 14 14 14 14 14 15 15 15 16 17 17 17 18 18 19 19 20 20 21 21 22 23 23 24 25 25 26 27 28 29 29 30 30 31 31 32 32 33
20 22 25 30 32 32 33 31 32 32 28 25 23 22 24 27 30 29 27 27 26 24 24 25 24 20 18 20 21 21 22 22 22 20 19 18 17 16 16 15 15 14 14 13 13 13 13 13 13 13 13 13 14 14 14 15 15 16 16 17 17 18 18 19 20 20 21 22 22 23 24 25 25 26 27 28 28 29 30 31 32 32 33 34 34 35
17 19 22 28 30 31 31 29 29 31 28 25 22 20 20 24 28 28 26 26 24 22 23 24 24 22 20 20 21 20 21 22 21 20 19 18 16 15 14 14 14 14 14 13 12 12 12 12 12 12 12 12 12 13 13 14 14 15 15 16 16 17 18 19 20 20 21 22 22 23 24 25 26 27 28 28 29 30 30 31 32 33 34 35 35 36
14 17 22 26 28 29 30 28 26 28 29 25 22 21 19 20 24 24 23 24 22 22 23 23 23 22 21 21 21 19 19 21 21 21 21 20 18 16 15 14 13 12 12 11 11 10 10 10 10 11 11 12 12 12 12 13 14 14 15 16 16 17 18 19 20 21 22 23 23 24 25 26 26 27 28 29 30 30 31 32 33 34 35 35 36 37
12 17 21 25 27 28 29 28 25 27 28 25 23 23 19 16 19 20 20 21 21 21 22 22 21 20 20 22 21 19 19 19 19 20 20 20 18 16 15 13 12 11 10 10 10 10 10 10 10 10 11 11 11 12 12 13 13 14 15 16 17 18 19 20 21 22 23 24 25 25 26 27 28 28 29 29 30 31 32 33 34 35 35 36 37 38
13 17 20 24 26 26 28 28 27 28 29 26 24 24 21 16 16 17 18 19 19 19 21 21 20 19 20 22 22 21 19 17 16 17 17 17 17 16 15 13 12 11 11 11 11 11 11 11 10 10 10 11 11 12 13 13 14 15 16 16 17 18 19 20 22 22 23 24 25 26 27 28 29 29 30 31 31 32 33 34 35 36 36 37 38 39
15 18 21 25 26 26 26 26 26 27 27 25 23 22 21 19 16 15 15 17 17 19 19 19 18 18 19 20 22 21 19 17 16 16 16 16 16 16 15 15 14 13 13 12 12 11 11 11 11 10 11 11 12 13 14 15 15 16 17 17 18 19 20 21 22 23 24 24 25 26 27 28 29 30 31 32 33 34 35 36 37 38 38 39 40 41
15 17 20 24 25 26 25 24 24 24 24 23 20 20 21 20 18 14 13 14 15 16 16 16 16 16 16 17 20 21 20 19 19 18 17 16 16 16 16 17 16 15 14 13 12 11 11 11 11 11 12 12 13 14 15 15 16 17 18 18 19 20 21 22 23 24 25 26 27 28 28 29 30 32 33 34 35 36 37 38 39 40 41 42 43 44
15 16 19 22 23 24 24 22 22 22 24 22 18 18 20 20 20 17 13 12 13 12 13 14 15 16 16 16 20 21 21 21 21 20 19 17 17 17 17 17 17 16 15 14 13 12 12 12 12 12 13 13 14 15 15 16 17 18 19 20 21 22 23 24 25 26 27 28 29 30 31 32 33 34 35 36 37 38 39 40 41 42 43 44 45 46
17 19 19 20 22 22 21 20 20 20 22 21 17 17 18 17 18 18 16 14 12 11 12 14 16 18 17 16 19 22 22 22 23 22 21 20 19 18 17 17 16 16 15 15 14 13 13 13 13 14 14 15 15 16 17 17 18 19 20 22 22 23 24 26 27 28 29 30 31 32 33 34 36 37 38 39 40 41 42 43 44 44 45 46 47 47
18 19 18 19 22 21 19 18 18 18 20 21 18 16 15 15 16 17 17 17 16 14 13 14 16 19 19 17 19 22 23 22 23 23 23 23 21 19 18 17 16 16 16 16 16 15 15 15 15 15 16 16 17 18 19 19 21 22 22 23 24 26 27 28 29 30 31 32 33 34 36 37 38 39 40 41 42 43 44 45 46 46 47 48 48 49
16 17 18 18 20 19 17 18 18 18 18 19 18 15 12 13 15 16 16 17 17 16 15 15 15 18 20 19 19 22 22 22 22 22 22 23 22 21 19 18 17 17 17 17 17 17 17 17 17 17 18 18 19 20 21 22 23 24 25 26 27 28 29 30 32 33 34 35 36 37 38 39 40 41 42 43 44 45 45 46 47 48 48 49 50 51
16 17 19 19 18 17 16 17 17 18 18 18 18 16 14 12 13 13 12 14 15 15 16 16 16 18 19 18 19 20 20 21 22 21 21 22 22 21 21 20 19 19 18 18 18 18 18 18 19 19 19 20 21 22 22 23 24 26 27 28 28 30 31 32 34 35 36 37 37 38 39 40 41 42 43 44 44 45 46 47 48 48 49 50 51 51
16 17 19 20 18 16 16 16 16 17 18 17 16 17 16 15 15 13 11 13 14 14 16 17 17 19 18 18 19 19 18 19 21 20 20 20 21 21 21 21 21 20 20 20 20 20 20 20 20 20 21 21 22 23 24 25 26 27 28 29 30 32 33 34 35 36 37 38 39 40 40 41 42 43 43 44 45 45 46 47 48 49 50 51 51 52
16 18 19 18 16 15 15 15 15 15 15 14 14 15 15 15 15 14 14 15 13 13 15 15 15 17 17 17 19 20 20 20 20 20 20 20 20 21 21 21 21 21 21 20 20 21 21 21 21 21 22 22 24 24 25 26 28 29 30 31 32 33 34 35 37 37 38 39 40 41 42 42 43 44 45 45 46 47 48 49 50 50 51 52 53 53
16 16 16 15 12 11 12 12 13 13 13 12 12 13 13 13 13 13 15 15 13 13 14 13 14 17 17 17 19 20 20 20 19 19 19 19 20 21 21 21 21 21 21 20 21 21 21 21 22 22 23 24 25 26 27 28 29 30 31 33 34 35 36 37 38 39 39 40 41 42 43 44 44 45 46 46 47 48 49 50 51 52 52 53 54 54
13 14 14 13 10 8 9 9 10 11 11 12 12 11 12 11 11 12 12 12 12 13 13 13 14 16 15 15 17 19 20 20 20 20 20 19 20 20 20 21 21 21 21 21 21 22 22 23 23 24 25 26 27 28 29 30 31 32 33 34 35 36 37 38 39 40 40 41 42 43 44 45 45 46 47 47 48 49 50 51 52 53 53 54 55 56
13 13 12 11 10 10 9 10 10 10 10 11 10 10 10 10 10 11 11 10 11 12 12 12 14 14 13 14 16 17 19 20 20 21 21 21 21 21 21 21 22 22 22 23 23 23 24 25 26 26 27 28 29 30 31 32 33 34 34 35 36 37 38 38 39 40 40 41 42 43 44 45 45 46 47 48 48 49 50 51 52 53 54 54 55 56
13 12 10 10 11 11 10 10 10 9 9 9 8 7 7 8 8 9 9 10 11 11 11 12 12 12 13 14 15 16 18 18 20 21 21 22 22 22 22 23 23 24 24 24 25 25 26 27 27 28 29 29 30 31 31 32 33 33 34 34 35 36 37 38 38 39 40 40 41 42 43 44 45 46 46 47 48 49 50 51 52 53 53 54 55 56
11 10 9 10 10 9 9 8 7 7 8 8 7 6 5 6 6 6 7 9 9 8 10 12 11 11 14 15 15 16 17 17 18 20 21 21 21 22 22 22 23 24 24 25 25 26 26 27 27 27 28 29 29 30 30 31 31 32 32 33 34 35 36 37 38 38 39 40 40 41 43 44 44 45 46 47 48 49 50 50 51 52 53 54 55 55
9 8 7 8 8 6 6 5 5 6 6 6 6 5 5 5 5 6 8 9 8 9 10 12 12 12 14 15 16 16 17 17 18 18 19 19 19 20 21 21 22 22 23 23 24 24 25 25 25 26 26 27 28 28 29 29 30 31 31 32 33 34 35 36 36 37 38 39 40 41 42 43 44 45 46 46 47 48 49 50 51 52 53 53 54 55
7 6 5 6 6 4 3 3 3 3 4 5 5 5 6 6 6 7 8 8 8 9 10 10 12 13 13 14 16 16 16 16 15 16 16 17 18 19 19 20 20 20 21 22 22 23 23 23 23 24 24 25 25 26 27 27 28 29 30 31 32 33 34 35 36 37 38 39 40 41 42 43 44 44 45 46 47 47 48 49 51 51 52 53 54 56
7 6 5 6 5 3 2 2 1 1 3 4 5 5 5 5 6 6 7 7 7 7 8 8 10 12 11 11 13 13 13 12 13 14 15 16 17 17 17 18 18 19 19 20 20 20 21 21 21 21 22 23 23 24 25 26 27 28 29 30 32 33 35 36 37 38 39 40 41 41 42 43 44 45 46 46 47 48 49 50 51 52 53 54 55 56
9 9 7 8 7 4 3 4 2 1 2 2 3 5 5 5 5 5 5 6 6 5 5 5 6 8 8 7 8 10 11 11 12 13 14 14 15 16 16 17 17 17 18 18 18 19 19 19 20 20 21 22 23 25 26 27 28 29 30 31 33 34 36 37 38 39 40 41 41 42 43 44 45 45 46 47 48 49 50 51 52 53 54 56 57 58
10 10 8 9 8 5 4 5 4 4 4 1 3 4 5 5 4 4 4 5 5 5 5 5 6 6 6 6 7 8 10 11 12 13 13 14 15 15 16 16 16 17 17 18 18 19 19 20 20 21 22 23 24 25 26 27 28 30 31 32 34 35 37 38 39 40 41 42 42 43 44 45 46 46 47 48 49 50 52 53 54 55 56 57 58 59
8 9 8 7 7 5 3 4 5 5 3 1 2 3 4 4 4 4 4 4 5 5 4 4 5 4 4 6 7 8 10 11 13 13 13 13 14 14 15 15 15 16 17 17 18 19 20 20 21 22 23 24 25 26 27 28 29 30 31 33 34 35 37 38 39 41 42 42 43 44 45 46 47 47 48 49 50 52 53 54 55 56 57 58 59 60
7 7 6 6 6 5 3 5 5 3 1 2 1 1 2 2 3 3 4 4 5 6 5 4 4 5 6 7 8 9 11 11 11 12 12 13 14 14 14 15 16 16 17 18 18 19 20 20 21 22 23 24 25 26 28 29 30 31 32 33 34 36 37 39 40 41 42 43 44 45 46 46 47 48 49 50 52 53 54 55 56 57 58 59 59 60
6 6 5 5 5 4 4 4 3 0 1 1 1 1 1 0 1 2 5 6 7 7 7 6 6 6 7 7 7 8 9 9 9 11 13 14 15 15 15 16 17 17 18 19 19 20 20 21 22 23 24 25 26 27 28 29 30 31 33 34 35 36 38 39 41 42 43 44 45 46 46 47 48 49 50 52 53 54 55 56 57 58 59 59 60 60
5 4 4 4 3 3 3 2 1 3 3 2 2 2 2 2 2 3 5 6 7 7 8 7 7 7 7 7 7 8 8 9 11 13 14 15 16 16 17 18 18 19 19 20 20 21 22 22 23 24 25 26 27 28 29 30 31 32 33 35 36 37 39 40 42 43 44 45 46 47 47 48 49 50 51 53 54 55 56 57 58 58 59 59 60 60
4 3 3 2 1 2 2 0 2 2 2 3 3 3 3 3 3 2 3 6 6 7 9 8 7 7 7 7 8 8 8 10 12 14 15 16 17 18 18 19 20 20 21 21 22 22 23 24 25 25 26 27 28 29 30 31 32 33 35 36 37 38 40 41 43 44 45 46 47 48 48 49 50 51 53 54 55 56 57 57 58 59 59 59 60 60
4 3 3 3 1 1 1 0 1 1 3 4 3 3 3 3 3 2 5 7 7 7 8 7 6 7 8 8 8 8 9 12 14 15 16 17 18 18 19 20 20 21 22 23 23 24 24 25 26 27 28 28 29 30 31 32 33 35 36 37 38 40 41 42 44 45 46 47 48 49 49 50 51 52 53 54 55 56 57 58 58 59 59 59 60 60
5 4 3 2 2 1 1 2 3 4 5 4 4 4 4 4 3 3 6 9 8 6 7 8 8 8 9 8 9 9 11 13 15 16 17 17 18 19 20 20 21 22 23 23 24 25 25 26 27 28 29 30 31 32 32 33 35 36 37 38 39 41 42 44 45 46 47 48 49 50 50 51 52 53 54 55 56 57 57 58 58 59 59 59 59 59
5 5 4 3 3 3 3 4 6 6 6 5 5 5 5 4 4 5 7 9 8 7 9 9 9 10 10 10 11 13 15 15 15 16 15 16 18 20 21 21 22 22 23 24 25 25 26 27 28 29 30 31 32 33 34 35 36 37 38 39 41 42 43 45 46 47 48 49 50 51 51 52 52 53 54 55 56 57 57 58 59 59 59 59 59 58
4 4 4 3 3 4 4 5 7 8 7 5 4 5 5 5 6 8 9 9 8 8 9 10 11 12 12 13 14 16 17 17 16 16 16 17 18 19 21 22 22 23 24 25 25 26 27 28 30 31 32 32 33 34 35 36 37 38 39 41 42 43 44 45 47 48 49 50 51 51 52 52 53 54 55 56 56 57 58 58 59 59 59 59 58 57
4 4 4 5 4 4 4 5 6 8 6 2 2 5 8 8 8 9 9 9 9 10 10 11 13 13 14 15 17 17 17 17 18 18 18 19 19 20 21 22 22 24 25 26 27 28 29 30 31 32 33 33 34 35 36 37 38 39 40 42 43 44 45 46 47 48 49 51 52 52 52 53 54 54 55 56 57 57 58 58 58 58 58 57 57 56
5 4 5 6 5 4 4 5 6 7 6 5 5 7 10 10 10 10 10 10 11 12 12 13 14 15 16 17 18 18 18 19 19 20 20 20 21 21 22 23 24 25 26 27 28 29 30 31 32 33 34 35 35 36 37 38 39 40 42 43 44 44 46 47 48 49 50 51 52 53 53 53 54 55 55 56 57 57 58 58 57 57 56 56 55 54
7 6 6 7 7 6 7 9 9 9 8 10 10 10 11 12 12 11 11 11 12 13 13 14 15 16 17 18 18 19 20 20 21 21 21 22 22 22 23 24 25 26 27 28 29 30 31 32 33 34 35 36 36 37 38 39 40 41 42 43 44 45 46 47 48 49 51 52 52 53 53 54 54 55 55 56 57 57 57 57 57 56 55 54 53 52
8 7 7 8 10 11 11 12 12 10 9 11 13 12 12 13 13 13 13 13 14 14 15 16 16 17 18 19 19 20 21 22 22 23 23 23 23 24 24 25 26 27 28 29 30 31 32 33 34 35 36 37 37 38 39 40 41 42 43 44 44 45 46 47 49 50 51 52 53 53 53 54 54 55 55 56 56 56 56 56 56 55 54 53 51 50
11 9 9 10 11 11 11 11 11 11 12 13 15 16 15 15 15 15 16 16 16 16 17 18 18 18 19 20 20 21 22 23 23 24 24 25 25 25 26 26 27 28 29 30 31 32 33 33 35 36 37 38 38 39 40 41 42 43 43 44 45 46 47 48 49 50 51 52 53 53 53 54 54 55 55 56 56 56 55 55 54 54 53 51 50 48
12 10 11 12 12 13 14 14 13 14 15 15 16 17 18 18 18 18 19 19 19 19 19 20 20 20 20 21 22 23 24 24 25 25 26 26 27 27 27 28 29 30 31 32 32 33 33 34 35 37 37 38 39 40 40 41 42 43 44 44 45 46 47 48 49 51 52 52 53 53 53 54 54 55 55 55 55 55 54 54 53 52 51 49 48 47
13 12 13 13 14 15 17 17 15 15 17 18 18 19 20 20 21 21 21 21 21 21 21 22 22 22 23 23 24 25 25 26 26 27 27 27 28 29 29 30 31 31 32 33 33 34 34 35 36 37 38 39 39 40 41 42 43 43 44 45 46 46 47 49 50 51 52 53 53 53 53 53 54 55 55 55 55 54 54 53 52 51 49 47 46 46
14 15 14 15 16 17 18 17 15 15 18 19 20 21 22 22 23 23 23 24 24 24 24 24 24 25 25 26 26 26 27 28 28 29 29 29 29 30 31 31 32 32 33 33 34 35 35 37 37 38 39 40 40 40 41 42 43 44 45 45 46 47 48 49 50 51 52 52 52 52 53 53 54 54 54 54 54 54 53 52 51 49 48 46 45 45
17 18 16 17 19 20 21 20 19 19 20 20 21 22 23 22 23 24 25 25 26 26 26 26 26 26 27 28 28 29 29 30 30 30 30 31 31 31 32 32 32 33 34 34 34 35 36 37 38 39 39 40 40 41 41 42 43 44 45 46 46 47 48 49 50 51 52 52 52 52 53 53 53 54 54 54 53 53 52 51 50 48 46 46 45 45
Wind_Direction
203 204 205 204 203 201 201 202 202 202 203 203 203 203 203 201 201 201 201 201 199 198 199 197 196 201 206 209 211 215 213 210 217 220 222 223 223 223 222 220 220 221 226 227 229 232 232 233 235 238 241 243 247 251 254 255 257 260 261 263 264 266 266 264 265 266 267 268 269 270 272 274 276 278 279 281 283 284 286 288 288 288 288 287 288 288
203 204 205 203 202 201 201 201 201 204 204 202 202 202 202 201 201 202 200 199 197 195 201 200 195 199 203 204 209 213 212 212 217 218 220 223 224 226 226 225 224 224 226 226 228 232 234 236 238 239 241 245 250 252 256 257 258 261 263 265 266 268 268 268 268 268 269 270 270 271 272 274 276 277 279 280 282 283 284 285 286 287 288 288 289 289
203 205 203 200 199 199 198 198 198 202 203 203 202 201 202 201 199 201 198 197 197 197 202 200 196 199 203 204 207 210 210 208 210 212 216 219 221 225 227 228 227 226 227 227 231 235 238 241 242 243 244 248 251 253 256 258 260 263 265 267 268 270 271 271 271 271 271 271 271 271 271 272 274 277 279 280 282 283 283 284 285 285 286 286 287 289
202 203 200 197 197 197 196 196 196 198 201 202 201 200 200 200 198 199 197 197 200 200 199 196 196 202 206 210 213 214 213 207 204 206 209 214 217 220 224 226 227 226 228 230 234 239 241 243 245 247 248 250 253 256 259 262 263 265 268 270 270 272 273 273 274 274 274 272 272 271 271 272 273 275 277 278 281 282 282 283 284 285 286 286 286 287
201 200 197 195 195 196 195 195 195 196 199 200 201 200 199 199 199 197 194 195 197 200 201 196 198 206 208 211 213 215 216 213 213 211 210 215 217 217 220 223 226 227 230 233 236 239 241 244 247 249 251 253 256 260 264 266 267 268 269 271 271 272 273 274 276 276 275 273 273 272 272 272 273 274 276 277 280 282 282 282 284 285 286 286 286 286
202 198 196 195 194 194 194 195 194 195 197 199 200 200 199 198 196 192 192 194 194 200 207 204 205 212 211 209 209 210 213 216 220 218 215 219 221 224 227 230 231 232 232 235 237 239 242 245 249 253 255 257 259 262 265 267 269 270 270 271 272 272 273 275 277 278 277 276 277 277 276 276 276 276 277 278 280 282 283 283 284 285 285 285 286 286
197 193 193 195 194 192 193 194 193 194 195 198 199 199 199 196 193 192 194 197 197 200 207 209 209 212 214 213 211 212 214 216 221 223 220 222 225 228 230 233 235 235 235 236 240 243 245 249 253 257 260 261 261 262 264 265 268 270 271 271 273 274 275 277 280 281 280 280 281 282 281 281 280 280 280 280 281 281 283 284 284 285 285 285 286 286
190 189 192 193 191 191 192 192 192 192 194 197 197 196 197 196 193 194 196 200 201 200 205 210 209 210 215 217 216 218 219 219 224 228 227 226 226 226 227 230 232 234 235 236 241 245 248 250 253 256 259 261 262 263 265 266 268 270 272 273 274 276 278 280 283 283 283 282 283 284 283 282 282 282 282 282 282 282 282 283 284 284 285 286 286 287
185 188 192 190 189 190 191 190 189 189 192 195 193 193 197 198 196 195 196 200 201 201 205 210 208 207 213 214 216 220 221 223 224 225 227 228 227 227 227 227 230 232 234 236 240 244 248 250 253 255 258 261 264 266 269 270 272 273 275 277 279 280 281 283 285 285 285 284 284 284 284 283 283 283 283 284 283 284 284 285 285 284 285 286 286 287
184 188 189 187 188 188 187 187 187 188 191 191 185 186 195 199 198 197 198 198 199 203 207 210 209 207 210 212 213 216 218 219 219 220 225 228 227 227 227 229 233 235 236 237 240 242 246 250 253 255 258 262 266 269 272 273 275 277 279 280 282 283 283 284 286 286 286 285 285 285 286 285 285 284 284 285 285 286 287 287 287 286 285 285 286 287
182 185 185 185 186 185 183 184 186 187 188 186 181 182 189 196 198 198 201 199 200 207 209 211 212 209 212 216 216 218 217 215 216 218 221 222 221 223 227 232 236 238 238 239 240 244 247 250 253 257 261 264 267 270 273 276 278 280 281 282 284 285 285 286 287 288 287 287 286 286 287 287 287 287 286 286 286 287 288 288 288 287 286 286 286 287
176 180 182 182 183 182 179 181 185 185 185 186 186 183 180 188 192 195 202 203 205 211 210 211 212 210 214 217 216 215 212 211 214 216 218 220 223 226 228 231 234 235 236 238 241 245 248 253 257 261 265 268 269 271 274 277 279 281 283 285 286 289 290 290 290 291 291 290 290 290 289 289 289 289 288 287 287 287 288 288 288 287 287 286 287 287
169 178 179 178 179 179 177 179 183 184 185 186 188 184 178 180 184 190 200 204 207 209 207 210 213 213 217 216 210 205 203 206 212 215 219 222 225 226 226 226 228 230 233 237 241 245 250 256 259 262 265 268 272 275 277 280 282 283 286 289 291 292 293 294 293 293 293 292 292 292 291 290 289 289 288 288 287 287 287 288 288 287 287 287 287 287
159 168 173 174 176 179 179 180 183 184 185 186 186 185 183 179 175 181 193 200 205 206 206 212 215 215 217 215 210 207 206 208 209 212 218 221 222 220 218 218 222 228 233 238 242 246 251 255 258 260 263 267 271 275 278 281 284 285 288 290 292 293 293 294 294 294 293 292 292 291 291 289 288 288 288 287 287 287 287 287 288 287 287 287 287 287
152 160 169 172 175 178 178 180 181 181 183 187 188 187 188 188 179 176 185 193 198 200 204 211 213 214 215 212 208 207 207 207 207 209 214 218 220 220 220 223 228 233 235 236 239 243 247 251 255 259 264 270 272 274 277 280 283 285 287 289 290 291 291 292 293 293 292 292 291 291 290 290 290 289 289 288 288 288 289 289 288 288 288 288 288 288
147 154 167 171 173 175 175 178 178 177 181 187 190 190 194 196 188 179 178 179 180 188 198 203 205 208 208 205 204 205 206 207 209 211 214 218 221 222 226 229 232 234 232 232 237 242 246 250 254 259 265 270 273 275 277 279 282 285 287 288 288 289 290 291 292 292 291 291 290 290 290 290 291 291 290 290 290 291 291 291 290 290 289 289 289 289
144 149 162 168 166 170 174 177 178 178 181 184 187 193 198 198 192 186 186 182 177 184 195 200 202 203 204 205 205 205 209 210 211 213 214 216 217 220 224 226 229 230 230 233 241 248 252 254 258 263 266 270 273 276 276 278 281 284 286 287 287 288 289 290 292 292 292 291 291 292 292 291 292 291 291 291 291 292 293 293 292 292 292 292 291 291
137 140 153 161 160 167 174 172 175 180 180 179 181 186 190 195 195 193 197 201 199 198 201 205 206 205 207 211 208 207 210 212 213 215 216 218 220 223 226 227 229 232 234 240 246 253 258 260 263 268 271 274 277 278 279 279 282 284 286 287 287 288 289 290 291 291 292 292 292 292 292 292 292 292 292 292 292 293 293 293 293 293 293 293 292 292
133 134 145 155 158 167 173 169 175 183 184 182 178 174 178 187 193 195 200 206 207 208 211 213 214 214 215 216 213 213 215 214 216 220 221 223 225 229 232 233 235 238 242 246 251 257 262 264 267 271 274 278 280 282 282 283 285 287 288 288 288 288 289 289 290 291 291 292 292 292 292 292 293 293 293 293 293 294 293 293 294 294 294 294 294 293
134 134 141 151 156 163 168 169 175 183 187 186 182 181 184 185 187 193 201 206 207 211 216 216 220 225 224 221 219 219 220 220 222 227 228 227 229 233 236 237 240 244 248 252 255 260 263 265 268 271 275 279 281 283 284 285 287 289 290 290 289 289 289 290 291 291 292 292 292 292 292 293 293 293 293 293 293 293 293 294 294 294 294 294 294 294
127 131 136 145 152 155 161 168 173 179 185 188 189 195 196 189 188 192 200 207 207 211 218 219 226 232 227 224 223 219 220 222 224 228 230 230 230 233 236 239 243 247 251 255 257 259 262 265 268 272 276 279 282 284 285 286 287 289 289 290 290 291 291 292 293 293 293 293 293 294 294 294 294 295 294 294 294 294 294 294 294 294 294 294 294 294
120 127 131 138 142 145 156 167 170 174 182 186 191 197 200 198 198 199 208 216 213 213 217 220 229 234 229 228 227 220 219 221 220 223 227 228 229 232 236 239 243 247 251 254 256 258 261 265 268 272 276 280 282 284 285 286 287 289 290 290 290 291 292 293 293 293 293 294 294 295 295 295 296 296 296 296 296 295 295 295 295 295 295 295 294 295
118 124 126 131 137 142 153 164 167 171 178 184 188 193 198 202 204 207 214 218 216 219 221 221 231 236 233 233 231 224 221 221 221 222 225 227 229 231 235 239 242 246 250 253 256 258 261 265 268 272 276 280 282 284 285 285 287 288 289 289 290 291 292 293 293 293 294 294 294 295 295 296 296 297 297 297 297 297 297 297 297 296 296 296 295 295
116 122 123 127 136 145 154 164 168 171 174 180 188 193 197 204 208 210 215 215 213 221 225 227 237 239 236 238 233 224 223 225 226 226 226 227 230 232 235 239 243 247 250 254 257 259 262 265 269 272 276 279 281 283 284 285 286 288 288 289 290 292 293 294 294 294 294 295 295 295 296 296 297 297 297 297 297 297 297 297 297 297 296 296 296 296
117 124 126 125 130 141 153 166 175 181 182 184 193 200 202 206 209 211 216 216 218 224 225 226 236 239 238 239 233 226 225 228 229 229 228 228 232 235 238 241 245 248 252 255 258 260 263 266 269 272 275 278 281 282 283 285 287 289 290 291 292 293 294 295 295 295 295 296 296 296 296 297 297 297 298 297 297 297 297 298 297 297 297 297 296 296
114 120 125 129 134 144 156 167 176 183 188 190 195 203 205 207 212 214 213 214 220 225 224 225 232 238 240 239 235 230 229 232 233 233 233 234 235 237 241 244 248 251 254 257 260 263 265 267 270 273 276 279 281 283 285 287 289 290 291 292 293 294 295 296 296 297 297 297 297 297 298 298 298 298 298 298 298 298 298 298 298 298 298 298 298 297
109 107 108 118 124 132 143 155 164 165 168 178 186 195 203 206 208 208 207 213 218 218 227 232 228 230 236 236 234 232 231 232 234 234 235 237 238 241 244 247 251 255 257 259 263 266 268 270 272 275 278 280 282 284 286 288 290 291 292 293 295 296 297 298 298 298 299 299 299 299 299 299 299 299 299 299 299 299 300 300 300 299 299 299 299 298
108 100 95 105 109 115 126 136 147 148 151 165 175 183 197 203 201 197 203 215 214 213 233 238 227 228 236 234 233 234 233 234 235 234 235 238 240 243 246 249 252 255 258 261 264 267 269 271 273 275 278 281 283 285 287 289 291 292 294 295 297 298 299 300 300 300 300 300 301 301 301 301 301 301 301 301 301 301 301 301 301 301 301 300 300 299
111 105 103 112 109 110 116 121 136 144 153 169 175 184 203 209 203 202 212 222 217 221 236 234 227 235 241 235 234 235 234 235 235 235 237 239 241 243 245 248 251 254 257 260 263 267 269 271 273 276 279 282 284 286 288 291 293 295 296 298 299 300 301 302 302 303 303 303 303 303 303 303 303 303 303 303 303 303 303 303 303 303 302 302 301 301
112 110 112 120 117 112 114 128 145 152 178 199 203 213 221 219 216 217 226 231 229 234 241 233 232 244 247 239 237 237 236 238 238 238 239 239 240 242 244 247 250 253 256 259 263 267 270 272 275 278 282 284 287 289 292 294 296 298 299 301 302 303 304 305 305 305 305 305 305 304 304 304 304 304 305 305 305 305 304 304 304 304 304 303 303 302
97 106 111 115 115 112 110 115 128 164 190 209 227 236 227 216 221 227 228 229 231 239 244 235 238 251 253 243 237 234 234 237 238 237 238 239 239 241 244 247 250 253 257 261 264 268 271 274 277 281 284 287 290 292 294 296 298 300 301 303 304 305 305 306 306 306 306 306 305 305 305 305 305 306 306 306 305 305 306 306 305 305 305 304 304 303
86 96 94 95 100 105 94 85 76 98 125 172 220 222 207 197 205 215 218 222 219 214 218 225 238 249 246 234 229 226 225 229 232 234 237 239 240 240 242 246 249 253 257 260 264 269 272 275 279 283 286 289 291 293 295 297 299 300 302 303 304 305 306 306 306 306 306 306 306 306 306 306 306 307 307 306 306 307 307 307 307 307 306 306 305 305
87 93 91 91 95 95 82 77 74 75 77 101 207 195 191 193 198 209 221 229 220 201 203 225 240 245 234 225 227 230 230 233 235 235 236 237 238 241 243 246 250 254 258 263 266 270 273 276 280 284 287 289 291 293 295 297 299 300 302 303 305 306 307 307 308 308 307 307 307 307 307 307 307 307 307 307 307 308 308 308 308 307 307 307 306 306
87 91 95 96 97 95 75 65 71 79 88 157 191 176 183 189 190 207 225 232 228 222 228 242 247 242 228 224 226 228 230 232 233 234 235 236 238 242 246 251 255 259 263 266 269 272 274 278 282 285 288 290 292 294 296 298 300 301 303 304 306 307 308 309 309 309 309 309 308 308 307 308 308 308 308 308 308 308 308 308 308 308 308 307 307 306
84 87 92 93 95 98 77 63 72 93 161 184 167 168 178 168 176 217 248 246 235 238 247 250 246 234 226 229 231 229 230 234 238 240 241 243 244 246 250 255 258 262 265 268 271 274 276 280 284 288 290 292 294 296 298 299 301 302 303 305 306 308 309 310 311 311 311 310 309 308 308 308 308 309 309 309 309 309 309 309 309 309 309 308 308 307
82 88 89 87 92 96 87 86 95 160 269 293 289 246 231 197 217 262 278 264 244 240 246 249 250 244 239 244 249 247 246 249 254 253 250 250 252 254 256 259 261 264 267 269 272 275 278 281 285 289 292 294 295 297 298 299 301 302 304 305 307 308 309 311 312 312 312 311 310 310 309 309 309 310 310 310 310 310 310 310 310 310 310 309 309 308
73 77 73 77 93 104 106 127 294 333 331 311 275 238 223 236 239 252 278 273 253 239 239 246 254 252 249 256 259 258 260 265 269 267 260 257 259 260 262 265 266 268 270 272 274 277 279 283 287 290 292 294 295 296 298 300 301 302 303 305 306 308 309 311 312 313 313 313 312 311 311 311 311 311 311 311 311 311 311 311 311 311 311 310 310 309
71 73 74 74 75 93 97 32 335 352 310 264 249 236 225 221 217 226 283 286 269 243 235 238 246 247 248 255 258 258 265 273 277 273 264 261 263 265 267 269 269 270 272 273 275 278 280 283 287 290 292 293 294 295 298 299 301 302 303 304 306 308 309 310 311 312 313 313 313 312 312 312 312 312 312 312 312 312 312 312 312 312 312 311 310 310
51 50 64 67 39 60 95 67 271 259 266 263 251 244 231 217 222 289 310 294 279 253 236 235 239 240 240 244 246 255 269 275 278 275 266 262 264 266 268 270 271 272 273 274 275 277 280 283 287 290 291 292 293 295 297 299 300 301 302 304 306 307 309 310 311 312 313 314 314 313 313 313 313 313 313 313 313 313 313 313 313 313 312 312 311 310
15 8 17 21 331 300 282 284 278 274 279 279 264 251 243 242 261 308 303 288 278 258 240 236 237 239 240 241 247 261 270 272 277 279 273 266 266 267 268 270 270 271 272 273 275 278 280 284 287 289 290 292 293 295 297 298 299 301 302 304 305 307 308 309 311 312 313 314 314 314 314 313 314 314 314 314 314 314 314 314 313 313 313 312 312 311
348 342 340 328 303 290 281 285 289 287 283 278 264 247 245 265 288 289 282 280 276 260 250 247 244 245 245 246 254 265 268 268 276 283 280 273 270 270 270 271 271 272 273 274 276 279 281 284 287 288 290 292 293 295 296 297 299 300 302 303 305 306 308 309 311 312 313 314 314 314 314 314 314 314 314 315 315 315 314 314 314 314 313 313 312 311
325 328 322 308 299 294 287 290 296 296 288 269 254 256 260 272 280 278 282 289 278 260 258 259 255 254 253 252 257 265 269 271 277 281 280 276 274 273 273 273 274 274 275 275 277 279 282 285 287 288 290 292 293 294 296 297 298 300 301 303 304 306 307 309 310 312 313 314 314 314 314 314 314 315 315 315 315 315 315 314 314 314 313 313 312 312
295 303 299 290 289 298 301 299 299 301 293 240 228 279 278 274 280 282 287 294 286 270 266 266 264 263 261 260 264 269 274 276 277 278 278 279 278 277 275 274 274 274 275 276 278 280 282 285 287 288 290 292 292 294 295 296 297 299 301 302 304 306 307 309 310 311 312 313 314 314 314 314 314 315 315 315 315 315 315 315 314 314 314 313 313 312
282 279 285 288 288 287 287 283 285 292 277 232 240 283 276 269 283 290 284 285 286 278 272 272 271 268 267 267 270 272 275 278 278 278 279 279 279 279 277 275 275 275 275 277 278 281 283 285 287 289 291 292 293 294 295 296 298 299 300 302 304 306 307 308 310 311 312 313 314 314 314 314 314 315 315 315 315 315 315 315 315 314 314 314 313 312
278 274 282 287 284 278 274 273 280 292 278 249 255 282 283 273 278 285 283 283 284 280 277 277 275 273 271 273 274 275 276 278 279 279 279 279 280 280 278 277 276 276 277 278 281 283 284 286 287 289 291 292 293 294 296 297 298 299 301 303 305 306 307 308 310 311 312 313 313 314 314 314 314 315 315 316 315 315 315 315 315 315 314 314 313 312
286 284 286 289 290 289 285 277 276 283 278 259 258 273 285 282 278 278 281 284 284 282 280 279 278 277 275 275 277 277 278 279 279 279 279 280 281 280 279 279 278 279 280 281 283 284 286 287 289 290 291 293 294 295 296 298 298 300 301 303 304 306 307 308 309 310 312 312 313 313 313 314 315 315 315 316 316 315 315 315 315 315 314 314 313 312
290 281 280 286 289 290 289 287 284 281 277 270 266 269 275 280 279 277 279 281 282 281 281 280 281 280 279 278 278 279 280 280 279 280 280 281 281 281 280 280 280 280 281 283 284 286 287 288 289 290 291 293 294 295 296 298 299 300 302 303 304 306 307 308 309 310 311 312 313 313 313 314 315 315 316 316 316 315 315 315 315 315 314 313 312 312
288 281 280 282 281 281 286 289 288 287 285 280 275 273 272 274 276 277 278 280 281 281 281 281 282 282 281 280 280 280 281 281 280 280 281 281 281 281 280 280 281 281 283 284 285 286 287 288 289 290 291 293 294 295 297 298 299 301 302 303 305 306 307 308 309 311 311 312 313 313 313 314 315 315 316 316 316 316 316 315 315 314 314 313 312 311
281 280 282 284 284 288 291 288 284 286 288 283 276 273 273 274 274 276 278 281 282 282 281 281 281 281 280 280 280 281 282 281 281 281 281 281 282 281 281 281 281 282 283 285 286 286 287 288 289 290 291 293 294 296 297 298 300 301 302 304 305 306 307 308 309 310 311 312 312 313 314 314 315 315 316 316 316 316 316 315 315 314 313 313 312 311
276 279 282 285 286 286 286 283 281 284 285 281 276 275 275 276 276 276 277 279 280 280 280 280 281 281 281 280 281 281 281 282 281 281 281 282 282 281 281 281 282 283 284 285 286 287 288 289 290 291 292 294 295 296 297 299 300 301 302 304 305 306 307 308 309 310 311 312 312 313 314 314 315 315 316 316 316 316 316 315 315 314 313 312 311 311
269 274 275 276 278 278 277 276 277 280 283 283 283 282 282 281 279 278 278 278 278 279 280 280 280 281 281 280 280 279 280 281 281 280 281 282 281 281 281 282 283 284 285 286 287 288 288 289 290 291 292 294 295 296 298 299 300 301 303 304 305 306 307 308 309 310 311 312 312 313 314 314 315 315 316 316 316 316 316 315 315 313 312 312 312 311